MPEC 2002-K50 : 2002 KG4
The following Minor Planet Electronic Circular may be linked-to from your own Web pages, but must not otherwise be redistributed electronically.A form allowing access to any MPEC is at the bottom of this page.


M.P.E.C. 2002-K50 Issued 2002 May 25, 01:12 UT The Minor Planet Electronic Circulars contain information on unusual minor planets and routine data on comets. They are published on behalf of Commission 20 of the International Astronomical Union by the Minor Planet Center, Smithsonian Astrophysical Observatory, Cambridge, MA 02138, U.S.A. Prepared using the Tamkin Foundation Computer Network MPC@CFA.HARVARD.EDU URL http://cfa-www.harvard.edu/iau/mpc.html ISSN 1523-6714 2002 KG4 Observations: K02K04G* C2002 05 22.25099 13 55 41.80 +49 50 26.1 17.3 704 K02K04G C2002 05 22.26544 13 55 42.20 +49 44 07.2 17.1 704 K02K04G C2002 05 22.27990 13 55 42.68 +49 37 45.6 17.2 704 K02K04G C2002 05 22.29436 13 55 43.15 +49 31 22.4 17.3 704 K02K04G C2002 05 22.90313 13 56 50.41 +44 41 31.1 557 K02K04G C2002 05 22.90342 13 56 50.43 +44 41 21.5 557 K02K04G C2002 05 22.90487 13 56 50.45 +44 40 36.9 557 K02K04G C2002 05 22.90545 13 56 50.56 +44 40 18.9 557 K02K04G C2002 05 22.90573 13 56 50.51 +44 40 10.3 557 K02K04G C2002 05 22.90660 13 56 50.53 +44 39 43.3 557 K02K04G C2002 05 22.95748 13 56 53.02 +44 13 12.7 557 K02K04G C2002 05 22.96677 13 56 53.48 +44 08 19.4 557 K02K04G C2002 05 22.96980 13 56 53.65 +44 06 43.3 557 K02K04G C2002 05 22.97357 13 56 53.82 +44 04 43.9 557 K02K04G C2002 05 22.97531 13 56 53.93 +44 03 49.0 557 K02K04G C2002 05 23.17992 13 57 25.74 +42 14 33.8 670 K02K04G C2002 05 23.19602 13 57 26.18 +42 05 43.6 670 K02K04G 1C2002 05 23.21502 13 57 26.95 +41 54 30.2 658 K02K04G 1C2002 05 23.21540 13 57 26.95 +41 54 17.8 658 K02K04G 1C2002 05 23.21590 13 57 26.98 +41 54 00.7 658 K02K04G 1C2002 05 23.21633 13 57 26.92 +41 53 46.4 658 K02K04G 1C2002 05 23.21673 13 57 27.07 +41 53 32.1 658 K02K04G C2002 05 23.22216 13 57 26.79 +41 51 16.1 670 K02K04G C2002 05 23.24425 13 57 27.50 +41 38 51.9 670 K02K04G C2002 05 23.27543 13 57 28.20 +41 21 15.9 670 K02K04G C2002 05 23.31187 13 57 29.36 +41 00 26.3 670 K02K04G C2002 05 23.34599 13 57 30.54 +40 40 42.0 670 K02K04G C2002 05 23.84168 13 58 33.03 +35 36 44.9 16.0 R 620 K02K04G C2002 05 23.84219 13 58 33.06 +35 36 21.4 15.7 R 620 K02K04G C2002 05 23.84270 13 58 33.07 +35 36 06.4 15.8 R 620 K02K04G C2002 05 23.84433 13 58 33.03 +35 35 01.3 16.0 R 620 K02K04G C2002 05 23.88138 13 58 36.54 +35 10 47.5 15.3 R 938 K02K04G C2002 05 23.88157 13 58 36.49 +35 10 41.3 15.4 R 938 K02K04G C2002 05 23.88177 13 58 36.57 +35 10 34.7 15.1 R 938 K02K04G C2002 05 23.88206 13 58 36.47 +35 10 21.3 15.4 R 938 K02K04G C2002 05 23.88226 13 58 36.43 +35 10 13.6 15.2 R 938 K02K04G C2002 05 23.88387 13 58 36.60 +35 09 10.3 15.4 R 938 K02K04G C2002 05 23.88412 13 58 36.61 +35 09 00.3 15.6 R 938 K02K04G C2002 05 23.88441 13 58 36.63 +35 08 49.1 15.6 R 938 K02K04G C2002 05 23.88466 13 58 36.67 +35 08 40.2 15.4 R 938 K02K04G C2002 05 23.88498 13 58 36.56 +35 08 27.4 15.4 R 938 K02K04G C2002 05 23.89060 13 58 36.73 +35 04 46.0 15.4 R 938 K02K04G C2002 05 23.89068 13 58 34.64 +35 04 44.8 15.6 R 176 K02K04G C2002 05 23.89088 13 58 36.79 +35 04 34.8 15.7 R 938 K02K04G C2002 05 23.89115 13 58 36.81 +35 04 24.5 15.6 R 938 K02K04G C2002 05 23.89142 13 58 36.89 +35 04 13.2 16.0 R 938 K02K04G C2002 05 23.89170 13 58 36.91 +35 04 01.8 15.6 R 938 K02K04G C2002 05 23.89172 13 58 34.68 +35 04 04.1 15.6 R 176 K02K04G C2002 05 23.89274 13 58 36.98 +35 03 20.0 15.4 R 938 K02K04G C2002 05 23.89277 13 58 34.72 +35 03 22.9 15.9 R 176 K02K04G C2002 05 23.89301 13 58 36.89 +35 03 11.3 15.2 R 938 K02K04G C2002 05 23.89325 13 58 36.90 +35 03 01.8 15.6 R 938 K02K04G C2002 05 23.89351 13 58 36.92 +35 02 50.8 15.5 R 938 K02K04G C2002 05 23.89377 13 58 36.90 +35 02 40.8 15.5 R 938 K02K04G C2002 05 23.89392 13 58 34.76 +35 02 37.9 15.7 R 176 K02K04G C2002 05 23.89977 13 58 37.17 +34 58 45.8 15.5 R 938 K02K04G C2002 05 23.90003 13 58 37.15 +34 58 33.9 15.8 R 938 K02K04G C2002 05 23.90037 13 58 37.19 +34 58 21.5 15.1 R 938 K02K04G C2002 05 23.90066 13 58 37.20 +34 58 09.8 15.3 R 938 K02K04G C2002 05 23.90100 13 58 37.21 +34 57 55.5 15.6 R 938 K02K04G C2002 05 23.90256 13 58 37.22 +34 56 56.1 15.6 R 938 K02K04G C2002 05 23.90286 13 58 37.28 +34 56 42.1 15.4 R 938 K02K04G C2002 05 23.90321 13 58 37.18 +34 56 29.3 15.7 R 938 K02K04G C2002 05 23.90347 13 58 37.19 +34 56 18.5 15.4 R 938 K02K04G C2002 05 23.90373 13 58 37.28 +34 56 07.8 15.4 R 938 K02K04G 2C2002 05 23.90429 13 58 34.82 +34 55 11.0 16.3 R 012 K02K04G 2C2002 05 23.90487 13 58 34.83 +34 54 47.5 16.4 R 012 K02K04G 2C2002 05 23.90546 13 58 34.83 +34 54 23.6 16.4 R 012 K02K04G 2C2002 05 23.90596 13 58 34.86 +34 54 03.1 16.6 R 012 K02K04G C2002 05 23.90613 13 58 35.16 +34 54 28.6 16.3 R 213 K02K04G C2002 05 23.90631 13 58 37.41 +34 54 26.1 15.6 R 938 K02K04G 2C2002 05 23.90648 13 58 34.89 +34 53 43.0 16.5 R 012 K02K04G C2002 05 23.90657 13 58 37.35 +34 54 14.8 16.2 R 938 K02K04G C2002 05 23.90678 13 58 35.18 +34 54 03.0 16.3 R 213 K02K04G C2002 05 23.90685 13 58 37.44 +34 54 04.7 15.3 R 938 K02K04G C2002 05 23.90714 13 58 37.31 +34 53 53.1 15.8 R 938 K02K04G C2002 05 23.90738 13 58 37.37 +34 53 43.0 15.6 R 938 K02K04G C2002 05 23.90829 13 58 35.20 +34 53 02.8 16.3 R 213 K02K04G C2002 05 23.90980 13 58 35.29 +34 52 03.7 16.3 R 213 K02K04G C2002 05 23.91086 13 58 35.29 +34 51 20.1 16.3 R 213 K02K04G C2002 05 23.91194 13 58 35.39 +34 50 39.1 16.2 R 213 K02K04G C2002 05 23.91302 13 58 35.48 +34 49 55.8 16.3 R 213 K02K04G C2002 05 23.91411 13 58 35.48 +34 49 12.7 16.4 R 213 K02K04G C2002 05 23.91523 13 58 35.51 +34 48 27.9 16.3 R 213 K02K04G C2002 05 23.91633 13 58 35.50 +34 47 44.1 16.3 R 213 K02K04G C2002 05 23.91740 13 58 35.51 +34 47 02.1 16.3 R 213 K02K04G C2002 05 23.91760 13 58 35.70 +34 46 53.1 170 K02K04G C2002 05 23.91847 13 58 35.56 +34 46 20.1 16.3 R 213 K02K04G C2002 05 23.91875 13 58 35.66 +34 46 05.8 170 K02K04G C2002 05 23.91957 13 58 35.66 +34 45 34.3 16.3 R 213 K02K04G C2002 05 23.92063 13 58 35.71 +34 44 52.2 16.3 R 213 K02K04G C2002 05 23.92362 13 58 35.90 +34 42 53.6 170 K02K04G C2002 05 23.93233 13 58 36.18 +34 37 05.5 170 K02K04G C2002 05 23.93366 13 58 36.13 +34 36 12.8 170 K02K04G C2002 05 23.93971 13 58 36.44 +34 32 12.1 170 K02K04G C2002 05 23.94214 13 58 36.49 +34 30 33.2 170 K02K04G C2002 05 23.94425 13 58 36.64 +34 29 09.2 170 K02K04G C2002 05 24.20327 13 59 08.57 +31 31 43.8 670 K02K04G 1C2002 05 24.21961 13 59 09.36 +31 19 25.2 658 K02K04G 1C2002 05 24.22036 13 59 09.41 +31 18 53.1 658 K02K04G 1C2002 05 24.22091 13 59 09.38 +31 18 29.4 658 K02K04G C2002 05 24.25833 13 59 09.99 +30 52 38.4 16.2 R 670 K02K04G C2002 05 24.31292 13 59 11.60 +30 13 16.1 670 K02K04G C2002 05 24.86143 14 00 15.43 +23 14 16.1 15.6 R 620 K02K04G C2002 05 24.86211 14 00 16.30 +23 13 43.5 15.9 R 941 K02K04G C2002 05 24.86254 14 00 16.20 +23 13 22.2 16.0 R 941 K02K04G C2002 05 24.86296 14 00 16.16 +23 13 01.9 16.0 R 941 K02K04G C2002 05 24.86486 14 00 15.56 +23 11 32.9 620 K02K04G C2002 05 24.86696 14 00 15.84 +23 09 43.0 16.4 R 213 K02K04G C2002 05 24.86986 14 00 15.87 +23 07 25.3 16.4 R 213 K02K04G C2002 05 24.87191 14 00 15.82 +23 05 45.6 16.4 R 213 K02K04G C2002 05 24.87318 14 00 16.00 +23 04 45.0 16.4 R 213 K02K04G C2002 05 24.87606 14 00 15.99 +23 02 25.9 16.4 R 213 K02K04G C2002 05 24.87861 14 00 15.97 +23 00 33.4 620 K02K04G C2002 05 24.88002 14 00 16.25 +22 59 14.8 16.4 R 213 K02K04G C2002 05 24.91705 14 00 15.61 +22 28 58.3 046 K02K04G C2002 05 24.91736 14 00 15.58 +22 28 43.5 046 K02K04G C2002 05 24.91761 14 00 15.61 +22 28 31.5 046 K02K04G C2002 05 24.91785 14 00 15.50 +22 28 18.5 046 K02K04G C2002 05 24.91808 14 00 15.67 +22 28 07.9 15.1 R 046 K02K04G C2002 05 24.91859 14 00 15.63 +22 27 43.3 046 K02K04G C2002 05 24.91884 14 00 15.67 +22 27 31.4 046 K02K04G C2002 05 24.91929 14 00 15.69 +22 27 09.2 046 K02K04G C2002 05 24.91958 14 00 15.69 +22 26 55.2 046 K02K04G C2002 05 24.95226 14 00 18.47 +22 00 52.9 15.6 R 176 K02K04G C2002 05 24.95365 14 00 18.53 +21 59 44.9 15.6 R 176 K02K04G C2002 05 24.95515 14 00 18.60 +21 58 31.6 15.6 R 176 K02K04G C2002 05 24.95723 14 00 18.69 +21 56 49.8 15.4 R 176 K02K04G C2002 05 24.95874 14 00 18.75 +21 55 36.0 15.7 R 176 Observer details: 012 Uccle. Observer T. Pauwels. 0.85m f/2.5 Schmidt + CCD 046 Klet. Observers J. Ticha, M. Tichy. 0.57-m f/5.2 reflector + CCD. 170 Observatorio de Begues. Observer J. Manteca. 0.26-m Schmidt-Cassegrain + CCD. 176 Observatori Astronomic de Consell. Observers A. Lopez, R. Pacheco. 0.2-m f/3.3 Schmidt-Cassegrain + CCD. 213 Observatorio Montcabre. Observer R. Naves N. Measurer M. Campas. 0.25-m f/3.3 Schmidt-Cassegrain + CCD. 557 Ondrejov. Observer L. Sarounova. 0.65-m f/3.6 reflector + CCD. 620 Observatorio Astronomico de Mallorca. Observers S. Sanchez, M. Blasco, J. Rodriguez. 0.40-m f/2.0 Schmidt + CCD. 658 National Research Council of Canada. Observers J. Clem, R. Robb. Measurer D. D. Balam. 1.82-m Plaskett reflector + CCD. 670 Camarillo. Observer J. E. Rogers. 0.30-m f/6.7 Helin Telescope + CCD. 704 Lincoln Laboratory ETS, New Mexico. Observers M. Blythe, F. Shelly, M. Bezpalko, R. Huber, L. Manguso, S. Adams, J. Piscitelli. Measurers J. Stuart, R. Sayer, J. B. Evans, H. Viggh. 1.0-m f/2.15 reflector + CCD. 938 Linhaceira. Observer R. Goncalves. 0.25-m f/6.7 Schmidt-Cassegrain + CCD. 941 Observatorio Pla D'Arguines. Observer R. Ferrando. 0.26-m f/10 Schmidt-Cassegrain + CCD. Orbital elements: 2002 KG4 PHA 0.050D Epoch 2002 May 6.0 TT = JDT 2452400.5 MPC M 0.71665 (2000.0) P Q n 0.20997763 Peri. 149.52809 -0.77707112 +0.47441955 a 2.8034148 Node 64.58607 -0.62910645 -0.56493066 e 0.6459243 Incl. 27.25430 -0.01963550 -0.67511439 P 4.69 H 20.7 G 0.15 From 129 observations 2002 May 22-24. Ephemeris: 2002 KG4 a,e,i = 2.80, 0.65, 27 q = 0.9926 Date TT R. A. (2000) Decl. Delta r Elong. Phase V 2002 05 16 13 44.2 +73 14.0 0.116 1.010 86.1 87.3 19.1 2002 05 17 13 46.2 +71 13.3 0.107 1.012 87.6 86.3 18.9 2002 05 18 13 48.10 +68 48.2 0.097 1.015 89.5 85.0 18.6 2002 05 19 13 49.96 +65 50.9 0.087 1.018 91.9 83.2 18.4 2002 05 20 13 51.78 +62 10.7 0.078 1.021 94.8 80.8 18.0 2002 05 21 13 53.56 +57 32.5 0.069 1.025 98.6 77.5 17.7 2002 05 22 13 55.31 +51 35.3 0.061 1.028 103.5 73.2 17.2 2002 05 23 13 57.04 +43 51.8 0.054 1.032 109.9 67.3 16.8 2002 05 24 13 58.75 +33 52.7 0.047 1.036 118.0 59.7 16.3 2002 05 25 14 00.44 +21 23.6 0.043 1.040 127.7 50.4 15.8 2002 05 26 14 02.14 +06 56.4 0.041 1.044 137.9 40.6 15.5 2002 05 27 14 03.84 -07 55.0 0.042 1.048 145.8 32.9 15.3 2002 05 28 14 05.54 -21 20.6 0.045 1.052 149.1 29.6 15.4 2002 05 29 14 07.27 -32 21.5 0.051 1.057 148.1 30.4 15.7 2002 05 30 14 09.01 -40 56.8 0.058 1.062 145.2 33.0 16.0 2002 05 31 14 10.79 -47 32.8 0.066 1.067 142.0 35.8 16.4 2002 06 01 14 12.61 -52 38.6 0.075 1.072 139.1 38.3 16.8 2002 06 02 14 14.47 -56 37.8 0.084 1.077 136.6 40.3 17.1 2002 06 03 14 16.38 -59 47.8 0.094 1.082 134.5 42.0 17.4 2002 06 04 14 18.35 -62 21.3 0.104 1.087 132.8 43.2 17.6 2002 06 05 14 20.38 -64 26.9 0.114 1.093 131.3 44.2 17.9 2002 06 15 14 44.9 -73 49.8 0.219 1.154 124.8 46.3 19.5 2002 06 25 15 17.0 -76 02.9 0.327 1.225 122.9 44.1 20.4 2002 07 05 15 52.7 -76 04.0 0.437 1.303 122.1 41.4 21.1 2002 07 15 16 28.4 -74 58.6 0.550 1.384 121.3 38.9 21.7 2002 07 25 17 02.0 -73 13.6 0.667 1.469 120.2 36.7 22.1 Timothy B. Spahr (C) Copyright 2002 MPC M.P.E.C. 2002-K50


Enter an MPEC number in one of the following forms:
- 1997-B01 (the full form)
- J97B01 (the packed version of the full form)
- B01 (the abbreviated form)